Weather History for Eureka, NV

Change the Weather History Date:

Friday, November 23, 2012

  Actual Average Record
Temperature  
Mean Temperature 37 °F 32 °F  
Max Temperature 57 °F 46 °F 61 °F (1995)
Min Temperature 17 °F 17 °F -10 °F (1994)
Degree Days  
Heating Degree Days 28 33  
Month to date heating degree days 571 667  
Since 1 July heating degree days 1128 1514  
Cooling Degree Days 0 0  
Month to date cooling degree days 0 0  
Year to date cooling degree days 529 288  
Moisture  
Dew Point 16 °F    
Average Humidity 51    
Maximum Humidity 80    
Minimum Humidity 22    
Precipitation  
Precipitation 0.00 in 0.03 in 0.33 in (1968)
Month to date precipitation 0.25 0.63  
Year to date precipitation 5.92 8.24  
Sea Level Pressure  
Sea Level Pressure 30.39 in    
Wind  
Wind Speed 5 mph (SSW)    
Max Wind Speed 14 mph    
Max Gust Speed 15 mph    
T = Trace of Precipitation, MM = Missing Value Source: NWS Daily Summary

Daily Weather History Graph

Daily Weather History Graph

Search for Another Location

Airport:

Trip Planner

Search our weather history database for the weather conditions in past years. The results will help you decide how hot, cold, wet, or windy it might be!

Date:

Astronomy

Nov. 23, 2012 Rise Set
Actual Time 6:37 AM PST 4:23 PM PST
Civil Twilight 6:08 AM PST 4:52 PM PST
Nautical Twilight 5:35 AM PST 5:25 PM PST
Astronomical Twilight 5:03 AM PST 5:57 PM PST
Moon 1:39 PM PST (11/23) 2:01 AM PST (11/23)
Length of Visible Light 10h 44m
Length of Day
9h 45m
Waxing Gibbous, 80% of the Moon is Illuminated
Nov 23
Waxing Gibbous
Nov 28
Full
Dec 6
Last Quarter
Dec 13
New
Dec 19
First Quarter

Hourly Weather History & Observations

Time (PST) Temp. Windchill Dew Point Humidity Pressure Visibility Wind Dir Wind Speed Gust Speed Precip Events Conditions
12:53 AM 21.9 °F 15.7 °F 14.0 °F 72% 30.42 in - South 4.6 mph - N/A   Unknown
1:53 AM 19.9 °F 12.1 °F 12.9 °F 74% 30.42 in - South 5.8 mph - N/A   Unknown
2:53 AM 21.0 °F 12.4 °F 12.9 °F 71% 30.41 in - South 6.9 mph - N/A   Unknown
3:53 AM 21.0 °F 11.4 °F 12.0 °F 68% 30.43 in - SSW 8.1 mph - N/A   Unknown
4:53 AM 18.0 °F 11.1 °F 12.0 °F 78% 30.46 in - South 4.6 mph - N/A   Unknown
5:53 AM 19.0 °F 11.1 °F 10.0 °F 68% 30.49 in - SW 5.8 mph - N/A   Unknown
6:53 AM 19.0 °F 11.1 °F 10.9 °F 71% 30.53 in - SSW 5.8 mph - N/A   Unknown
7:53 AM 28.9 °F 23.9 °F 15.1 °F 56% 30.52 in - SSW 4.6 mph - N/A   Unknown
8:53 AM 35.1 °F - 18.0 °F 50% 30.51 in - Calm Calm - N/A   Unknown
9:53 AM 41.0 °F - 19.0 °F 41% 30.47 in - Calm Calm - N/A   Unknown
10:53 AM 46.9 °F - 18.0 °F 32% 30.41 in - Calm Calm - N/A   Unknown
11:53 AM 51.1 °F - 19.0 °F 28% 30.36 in - Calm Calm - N/A   Unknown
12:53 PM 54.0 °F - 18.0 °F 24% 30.33 in - Calm Calm - N/A   Unknown
1:53 PM 55.9 °F - 18.0 °F 23% 30.31 in - NNE 5.8 mph - N/A   Unknown
2:53 PM 55.0 °F - 19.9 °F 25% 30.31 in - ENE 5.8 mph - N/A   Unknown
3:53 PM 53.1 °F - 21.0 °F 29% 30.31 in - Calm Calm - N/A   Unknown
4:53 PM 42.1 °F 39.2 °F 18.0 °F 38% 30.37 in - South 4.6 mph - N/A   Unknown
5:53 PM 35.1 °F 29.3 °F 19.0 °F 52% 30.40 in - SSW 6.9 mph - N/A   Unknown
6:53 PM 30.0 °F - 16.0 °F 56% 30.42 in - Calm Calm - N/A   Unknown
7:53 PM 34.0 °F 28.0 °F 17.1 °F 50% 30.35 in - SSW 6.9 mph - N/A   Unknown
8:53 PM 32.0 °F 24.8 °F 16.0 °F 52% 30.34 in - SSW 8.1 mph - N/A   Unknown
9:53 PM 34.0 °F 26.6 °F 15.1 °F 46% 30.32 in - SW 9.2 mph - N/A   Unknown
10:53 PM 32.0 °F 23.6 °F 15.1 °F 50% 30.30 in - South 10.4 mph - N/A   Unknown
11:53 PM 30.9 °F 22.2 °F 15.1 °F 52% 30.29 in - SSW 10.4 mph - N/A   Unknown